TimeMST,TemperatureF,Dew PointF,Humidity,Sea Level PressureIn,VisibilityMPH,Wind Direction,Wind SpeedMPH,Gust SpeedMPH,PrecipitationIn,Events,Conditions,WindDirDegrees,DateUTC
5:00 AM,11,8,84,30.08,1,Calm,Calm,,,,Mist,,2013-03-06 12:00:00
5:00 AM,10.4,8.6,92,30.08,0.8,Calm,Calm,-,N/A,,Mist,0,2013-03-06 12:00:00
6:00 AM,10.4,8.6,92,30.09,0.5,South,3.5,-,N/A,Fog,Light Freezing Fog,180,2013-03-06 13:00:00
7:00 AM,10.4,6.8,85,30.08,0.2,SW,3.5,-,N/A,Fog,Light Freezing Fog,230,2013-03-06 14:00:00
8:00 AM,10.4,6.8,85,30.07,0.2,West,4.6,-,N/A,Fog,Light Freezing Fog,280,2013-03-06 15:00:00
9:00 AM,12.2,10.4,92,30.05,0.2,NNW,2.3,-,N/A,Fog,Light Freezing Fog,340,2013-03-06 16:00:00
10:00 AM,14.0,12.2,93,30.04,0.1,South,4.6,-,N/A,Fog,Light Freezing Fog,170,2013-03-06 17:00:00
11:00 AM,15,13,85,30.03,0,South,3.5,,,Fog,Heavy Fog,170,2013-03-06 18:00:00
11:00 AM,15.8,12.2,86,30.02,0.2,South,4.6,-,N/A,Fog,Light Freezing Fog,170,2013-03-06 18:00:00
11:46 AM,15.8,12.2,86,30.01,0.5,South,2.3,-,N/A,Fog,Light Freezing Fog,170,2013-03-06 18:46:00
12:00 PM,15.8,12.2,86,30.01,0.5,Calm,Calm,-,N/A,Fog,Light Freezing Fog,0,2013-03-06 19:00:00
12:19 PM,15.8,14.0,93,30.01,1.0,Calm,Calm,-,N/A,,Overcast,0,2013-03-06 19:19:00
12:44 PM,15.8,14.0,93,30.00,2.0,West,3.5,-,N/A,,Overcast,270,2013-03-06 19:44:00
1:00 PM,15.8,14.0,93,29.99,3.0,Calm,Calm,-,N/A,,Overcast,0,2013-03-06 20:00:00
1:16 PM,17.6,15.8,93,29.99,4.0,Calm,Calm,-,N/A,,Overcast,0,2013-03-06 20:16:00
2:00 PM,17.6,15.8,93,29.99,4.0,East,2.3,-,N/A,,Overcast,90,2013-03-06 21:00:00
2:25 PM,17.6,15.8,93,29.98,4.0,Variable,2.3,-,N/A,Snow,Light Snow,0,2013-03-06 21:25:00
2:38 PM,19.4,17.6,93,29.98,2.5,SE,3.5,-,N/A,Snow,Light Snow,140,2013-03-06 21:38:00
3:00 PM,19.4,17.6,93,29.98,2.5,East,4.6,-,N/A,Snow,Light Snow,80,2013-03-06 22:00:00
3:28 PM,21.2,19.4,93,29.99,1.2,NE,5.8,-,N/A,Snow,Light Snow,50,2013-03-06 22:28:00
4:00 PM,19.4,19.4,100,29.99,1.0,ENE,6.9,-,N/A,Snow,Light Snow,60,2013-03-06 23:00:00
5:00 PM,20,18,89,29.99,1,NE,5.8,,,Snow,Light Snow,50,2013-03-07 00:00:00
5:00 PM,19.4,17.6,93,29.98,1.5,NE,5.8,-,N/A,Snow,Light Snow,50,2013-03-07 00:00:00
6:00 PM,19.4,17.6,93,29.99,1.2,ENE,5.8,-,N/A,Snow,Light Snow,70,2013-03-07 01:00:00
7:00 PM,17.6,15.8,93,30.01,1.0,ENE,5.8,-,N/A,Snow,Light Snow,60,2013-03-07 02:00:00
8:00 PM,17.6,15.8,93,30.03,1.2,NE,4.6,-,N/A,Snow,Light Snow,50,2013-03-07 03:00:00
9:00 PM,15.8,14.0,93,30.03,1.2,NNE,4.6,-,N/A,Snow,Light Snow,30,2013-03-07 04:00:00
10:00 PM,15.8,14.0,93,29.81,1.2,NE,3.5,-,N/A,Snow,Light Snow,40,2013-03-07 05:00:00